Weather History for Clarksville, TN

Change the Weather History Date:

Sunday, December 9, 2012

  Actual Average Record
Temperature  
Mean Temperature 60 °F -  
Max Temperature 65 °F - 75 °F (1952)
Min Temperature 54 °F - 13 °F (1968)
Degree Days  
Heating Degree Days 5    
Month to date heating degree days 66  
Since 1 July heating degree days 922  
Cooling Degree Days 0    
Month to date cooling degree days 3  
Growing Degree Days 8 (Base 50)    
Moisture  
Dew Point 57 °F    
Average Humidity 92    
Maximum Humidity 100    
Minimum Humidity 84    
Precipitation  
Precipitation 1.75 in - 3.05 in (2008)
Month to date precipitation 2.71  
Sea Level Pressure  
Sea Level Pressure 29.85 in    
Wind  
Wind Speed 7 mph (South)    
Max Wind Speed 22 mph    
Max Gust Speed 26 mph    
Visibility 6 miles    
Events Rain , Thunderstorm    
T = Trace of Precipitation, MM = Missing Value Source: NWS Daily Summary

Daily Weather History Graph

Daily Weather History Graph

Search for Another Location

Airport:

Trip Planner

Search our weather history database for the weather conditions in past years. The results will help you decide how hot, cold, wet, or windy it might be!

Date:

Astronomy

Dec. 09, 2012 Rise Set
Actual Time 6:50 AM CST 4:33 PM CST
Civil Twilight 6:21 AM CST 5:02 PM CST
Nautical Twilight 5:49 AM CST 5:34 PM CST
Astronomical Twilight 5:18 AM CST 6:06 PM CST
Moon 2:27 AM CST (12/9) 1:36 PM CST (12/9)
Length of Visible Light 10h 40m
Length of Day
9h 43m
Waning Crescent, 18% of the Moon is Illuminated
Dec 9
Waning Crescent
Dec 13
New
Dec 19
First Quarter
Dec 28
Full
Jan 4
Last Quarter

Hourly Weather History & Observations

Time (CST) Temp. Dew Point Humidity Pressure Visibility Wind Dir Wind Speed Gust Speed Precip Events Conditions
12:52 AM 54.0 °F 53.1 °F 97% 29.94 in 4.0 mi Calm Calm - N/A   Overcast
1:30 AM 53.6 °F 53.6 °F 100% 29.94 in 2.5 mi ESE 3.5 mph - N/A   Overcast
1:52 AM 54.0 °F 53.1 °F 97% 29.92 in 2.5 mi ESE 3.5 mph - N/A   Overcast
2:52 AM 55.0 °F 54.0 °F 96% 29.91 in 2.0 mi ESE 3.5 mph - N/A   Overcast
2:59 AM 55.4 °F 53.6 °F 94% 29.91 in 1.5 mi ESE 5.8 mph - N/A   Overcast
3:27 AM 55.4 °F 53.6 °F 94% 29.91 in 0.8 mi SE 4.6 mph - N/A   Overcast
3:34 AM 55.4 °F 53.6 °F 94% 29.91 in 1.0 mi SE 5.8 mph - N/A   Overcast
3:44 AM 55.4 °F 55.4 °F 100% 29.91 in 1.2 mi ESE 4.6 mph - N/A   Overcast
3:52 AM 55.9 °F 55.0 °F 97% 29.91 in 1.5 mi SE 4.6 mph - N/A   Overcast
4:31 AM 55.4 °F 55.4 °F 100% 29.89 in 2.0 mi SE 4.6 mph - 0.01 in Rain Light Rain
4:47 AM 57.2 °F 55.4 °F 94% 29.89 in 3.0 mi SE 5.8 mph - 0.01 in   Overcast
4:56 AM 57.2 °F 55.4 °F 94% 29.88 in 2.5 mi SE 5.8 mph - 0.01 in Rain , Thunderstorm Light Rain
5:10 AM 57.2 °F 57.2 °F 100% 29.89 in 2.5 mi Calm Calm - 0.04 in Rain , Thunderstorm Light Thunderstorms and Rain
5:20 AM 59.0 °F 57.2 °F 94% 29.90 in 1.2 mi Calm Calm - 0.17 in Rain , Thunderstorm Heavy Thunderstorms and Rain
5:22 AM 57.2 °F 57.2 °F 100% 29.90 in 0.8 mi Calm Calm - 0.27 in Rain , Thunderstorm Heavy Thunderstorms and Rain
5:46 AM 59.0 °F 57.2 °F 94% 29.89 in 1.8 mi SE 6.9 mph - 0.70 in Rain , Thunderstorm Rain
5:47 AM 59.0 °F 57.2 °F 94% 29.90 in 2.0 mi SE 8.1 mph - 0.70 in Rain , Thunderstorm Rain
5:52 AM 57.9 °F 57.0 °F 97% 29.90 in 4.0 mi SE 6.9 mph - 0.70 in Rain , Thunderstorm Light Rain
5:54 AM 57.2 °F 57.2 °F 100% 29.90 in 4.0 mi SSE 6.9 mph - 0.00 in Rain Light Rain
6:01 AM 59.0 °F 57.2 °F 94% 29.89 in 8.0 mi SE 6.9 mph - 0.00 in   Overcast
6:05 AM 59.0 °F 57.2 °F 94% 29.90 in 10.0 mi SSE 4.6 mph - 0.00 in   Overcast
6:52 AM 59.0 °F 57.9 °F 96% 29.89 in 4.0 mi SSE 4.6 mph - 0.05 in Rain Light Rain
7:52 AM 59.0 °F 57.9 °F 96% 29.90 in 5.0 mi South 4.6 mph - 0.03 in Rain Light Rain
8:40 AM 59.0 °F 57.2 °F 94% 29.93 in 2.5 mi SW 5.8 mph - 0.06 in Rain Rain
8:52 AM 60.1 °F 57.9 °F 93% 29.92 in 4.0 mi SSW 6.9 mph - 0.10 in Rain Light Rain
9:52 AM 61.0 °F 59.0 °F 93% 29.90 in 10.0 mi South 6.9 mph - 0.00 in   Overcast
10:52 AM 63.0 °F 59.0 °F 87% 29.87 in 10.0 mi South 11.5 mph - N/A   Mostly Cloudy
12:52 PM 64.9 °F 61.0 °F 87% 29.85 in 10.0 mi SSW 11.5 mph - 0.03 in Rain Light Rain
1:52 PM 64.0 °F 60.1 °F 87% 29.84 in 10.0 mi SSW 11.5 mph - 0.05 in Rain Light Rain
2:26 PM 62.6 °F 59.0 °F 88% 29.83 in 1.8 mi South 16.1 mph 25.3 mph 0.09 in Rain Rain
2:35 PM 62.6 °F 59.0 °F 88% 29.83 in 3.0 mi South 11.5 mph - 0.11 in Rain Rain
2:52 PM 62.1 °F 59.0 °F 90% 29.83 in 10.0 mi WNW 5.8 mph - 0.11 in   Overcast
3:52 PM 62.1 °F 59.0 °F 90% 29.80 in 10.0 mi SSE 5.8 mph - N/A   Mostly Cloudy
4:52 PM 62.1 °F 60.1 °F 93% 29.78 in 10.0 mi SSE 5.8 mph - N/A   Clear
5:32 PM 62.6 °F 59.0 °F 88% 29.80 in 10.0 mi SSW 3.5 mph - N/A Thunderstorm Mostly Cloudy
5:47 PM 62.6 °F 59.0 °F 88% 29.80 in 10.0 mi SSW 4.6 mph - N/A   Overcast
5:52 PM 63.0 °F 59.0 °F 87% 29.79 in 10.0 mi South 6.9 mph - N/A   Overcast
6:05 PM 64.4 °F 57.2 °F 77% 29.80 in 10.0 mi SSW 5.8 mph - N/A Thunderstorm Overcast
6:20 PM 62.6 °F 59.0 °F 88% 29.80 in 8.0 mi SSW 5.8 mph - 0.06 in Rain Light Rain
6:52 PM 63.0 °F 57.9 °F 84% 29.76 in 10.0 mi South 10.4 mph - 0.11 in   Partly Cloudy
7:52 PM 63.0 °F 57.9 °F 84% 29.76 in 10.0 mi SSW 4.6 mph - N/A   Overcast
8:52 PM 63.0 °F 57.9 °F 84% 29.76 in 6.0 mi South 10.4 mph - 0.04 in Rain Light Rain
9:33 PM 62.6 °F 57.2 °F 82% 29.76 in 7.0 mi SSW 10.4 mph - 0.06 in Rain , Thunderstorm Light Rain
9:48 PM 62.6 °F 57.2 °F 82% 29.76 in 10.0 mi SSW 9.2 mph - 0.07 in Rain Light Rain
9:52 PM 62.1 °F 57.9 °F 86% 29.75 in 10.0 mi SSW 8.1 mph - 0.07 in   Mostly Cloudy
10:24 PM 60.8 °F 57.2 °F 88% 29.78 in 2.5 mi West 11.5 mph 20.7 mph 0.23 in Rain Heavy Rain
10:45 PM 60.8 °F 57.2 °F 88% 29.76 in 6.0 mi West 3.5 mph - 0.33 in Rain Light Rain
10:52 PM 59.0 °F 57.0 °F 93% 29.77 in 7.0 mi West 5.8 mph - 0.34 in Rain Light Rain
11:08 PM 59.0 °F 57.2 °F 94% 29.78 in 5.0 mi Calm Calm - 0.03 in Rain Light Rain
11:23 PM 59.0 °F 57.2 °F 94% 29.78 in 5.0 mi SW 4.6 mph - 0.07 in Rain Light Rain
11:52 PM 59.0 °F 57.0 °F 93% 29.75 in 6.0 mi SSW 3.5 mph - 0.09 in Rain Light Rain